Header for Extended Forecast Station List Page

Search by: ID | Name | Date | Parm | Value | Avg | % Avg
Sort by: ID | Name | Date | Parm | Value | Avg | % Avg

Enter search or view all records.

Click on id for station plot
#IDNameDateParmValueAvg% Avg
0LEOI1KOOTENAI-AT LEONIA10-12-2021DISCHARGE (KAF)25351616157
1FCFM8NF FLATHEAD-NEAR COLUMBIA FALLS10-12-2021DISCHARGE (KAF)12719764
2WGCM8MF FLATHEAD-NEAR WEST GLACIER10-12-2021DISCHARGE (KAF)5917334
3CFMM8FLATHEAD-AT COLUMBIA FALLS10-12-2021DISCHARGE (KAF)864119672
4DLGM8CLARK FORK-AT DEER LODGE10-12-2021DISCHARGE (KAF)476375
5DRMM8CLARK FORK-NR DRUMMOND10-12-2021DISCHARGE (KAF)117MM
6RCCM8ROCK CREEK-NEAR CLINTON10-12-2021DISCHARGE (KAF)475093
7BONM8BLACKFOOT-NEAR BONNER10-12-2021DISCHARGE (KAF)10813779
8ABOM8CLARK FORK-ABOVE MISSOULA10-12-2021DISCHARGE (KAF)28334981
9BITM8BITTERROOT-NEAR MISSOULA10-12-2021DISCHARGE (KAF)11923152
10BELM8CLARK FORK-BELOW MISSOULA10-12-2021DISCHARGE (KAF)40258469
11STRM8ST. REGIS-NEAR ST. REGIS10-12-2021DISCHARGE (KAF)173747
12SRGM8CLARK FORK-AT ST REGIS10-12-2021DISCHARGE (KAF)51176167
13PRTI1PRIEST-NEAR PRIEST RIVER10-12-2021DISCHARGE (KAF)16223769
14SPOW1SPOKANE-AT SPOKANE10-12-2021DISCHARGE (KAF)350MM
15SATI1ST MARIES-NEAR SANTA10-12-2021DISCHARGE (KAF)123042
16CIBW1COLUMBIA-AT INTL BOUNDARY10-12-2021DISCHARGE (KAF)17039MM
17LAUW1KETTLE-AT LAURIER10-12-2021DISCHARGE (KAF)8212864
18TONW1OKANOGAN-NEAR TONASKET10-12-2021DISCHARGE (KAF)22328279
19PATW1METHOW-NEAR PATEROS10-12-2021DISCHARGE (KAF)8410084
20ARDW1ENTIAT-NEAR ARDENVOIR10-12-2021DISCHARGE (KAF)2622118
21PESW1WENATCHEE-AT PESHASTIN10-12-2021DISCHARGE (KAF)299294102
22EASW1YAKIMA-AT EASTON10-12-2021DISCHARGE (KAF)556584
23TNAW1TEANAWAY-BELOW FORKS10-12-2021DISCHARGE (KAF)193651
24UMTW1YAKIMA-AT UMTANUM10-12-2021DISCHARGE (KAF)20024382
25CLFW1NACHES-NEAR CLIFFDEL10-12-2021DISCHARGE (KAF)8510085
26NACW1NACHES-NEAR NACHES10-12-2021DISCHARGE (KAF)717398
27PARW1YAKIMA-NEAR PARKER10-12-2021DISCHARGE (KAF)33143876
28KIOW1YAKIMA-AT KIONA10-12-2021DISCHARGE (KAF)49167473
29CHEI1FALL RIVER-NEAR CHESTER10-12-2021DISCHARGE (KAF)10711295
30ANTI1HENRYS FORK-AT ST. ANTHONY10-12-2021DISCHARGE (KAF)31334192
31TEAI1TETON-NEAR ST. ANTHONY10-12-2021DISCHARGE (KAF)9110785
32REXI1HENRYS FORK-AT REXBURG10-12-2021DISCHARGE (KAF)40043393
33JKSW4SNAKE-NEAR JACKSON10-12-2021DISCHARGE (KAF)26231683
34ALPW4SNAKE-NEAR ALPINE10-12-2021DISCHARGE (KAF)32140180
35HEII1SNAKE-NEAR HEISE10-12-2021DISCHARGE (KAF)31361851
36SIFI1SNAKE-AB EAGLE ROCK NR IDAHO FALLS10-12-2021DISCHARGE (KAF)52482264
37SHYI1SNAKE-NEAR SHELLEY10-12-2021DISCHARGE (KAF)51680464
38SNAI1SNAKE-AT BLACKFOOT10-12-2021DISCHARGE (KAF)42972359
39BFTI1SNAKE-NEAR BLACKFOOT10-12-2021DISCHARGE (KAF)45078058
40PIHI1PORTNEUF-AT POCATELLO10-12-2021DISCHARGE (KAF)376061
41MILI1SNAKE-AT MILNER10-12-2021DISCHARGE (KAF)M533M
42HOTI1BRUNEAU-NEAR HOT SPRINGS10-12-2021DISCHARGE (KAF)212778
43SWAI1SNAKE-BELOW SWAN FALLS10-12-2021DISCHARGE (KAF)1776254870
44HWRI1BIG LOST-AT HOWELL RANCH NEAR CHILLY10-12-2021DISCHARGE (KAF)142262
45HALI1BIG WOOD-AT HAILEY10-12-2021DISCHARGE (KAF)224155
46BIGI1BOISE-AT GLENWOOD BRIDGE10-12-2021DISCHARGE (KAF)4537123
47PARI1BOISE-NEAR PARMA10-12-2021DISCHARGE (KAF)17521083
48EMMI1PAYETTE-NEAR EMMETT10-12-2021DISCHARGE (KAF)22334764
49WSRI1WEISER-NEAR WEISER10-12-2021DISCHARGE (KAF)306943
50WEII1SNAKE-AT WEISER10-12-2021DISCHARGE (KAF)2501360069
51WHBI1SALMON-AT WHITEBIRD10-12-2021DISCHARGE (KAF)705109065
52TRYO3GRANDE RONDE-TROY10-12-2021DISCHARGE (KAF)15927957
53ANAW1SNAKE-NEAR ANATONE10-12-2021DISCHARGE (KAF)3261559458
54ORFI1CLEARWATER-AT OROFINO10-12-2021DISCHARGE (KAF)31164248
55SPDI1CLEARWATER-AT SPALDING10-12-2021DISCHARGE (KAF)739153348
56TCHW1WALLA WALLA-NEAR TOUCHET10-12-2021DISCHARGE (KAF)6510264
57GIBO3UMATILLA-NEAR GIBBON10-12-2021DISCHARGE (KAF)253181
58PDTO3UMATILLA-AT PENDLETON10-12-2021DISCHARGE (KAF)656995
59MYKO3MCKAY CREEK-NEAR PILOT ROCK10-12-2021DISCHARGE (KAF)1714117
60UMAO3UMATILLA-NEAR UMATILLA10-12-2021DISCHARGE (KAF)10372142
61MONO3NF JOHN DAY-AT MONUMENT10-12-2021DISCHARGE (KAF)539257
62SERO3JOHN DAY-AT SERVICE CK10-12-2021DISCHARGE (KAF)11117564
63MODO3DESCHUTES-AT MOODY NR BIGGS10-12-2021DISCHARGE (KAF)1319136597
64PITW1KLICKITAT-NEAR PITT10-12-2021DISCHARGE (KAF)23026487
65HODO3HOOD-NEAR TUCKER BRIDGE10-12-2021DISCHARGE (KAF)20621496
66UNDW1WHITE SALMON-NEAR UNDERWOOD10-12-2021DISCHARGE (KAF)18522682
67LYDM8KOOTENAI-LIBBY DAM10-12-2021INFLOW (KAF)76293582
68HHWM8SF FLATHEAD-HUNGRY HORSE DAM10-12-2021INFLOW (KAF)14224658
69KERM8FLATHEAD-SELI’Š KSANKA QLISPE’ DAM10-12-2021INFLOW (KAF)931150462
70NOXM8CLARK FORK-NOXON RAPIDS DAM10-12-2021INFLOW (KAF)1882348254
71CABI1CLARK FORK-CABINET GORGE DAM10-12-2021INFLOW (KAF)2063363357
72ALFW1PEND OREILLE-ALBENI FALLS DAM10-12-2021INFLOW (KAF)2311422755
73COEI1COEUR D ALENE-COEUR D ALENE LAKE10-12-2021INFLOW (KAF)23761738
74LLKW1SPOKANE-AT LONGLAKE10-12-2021INFLOW (KAF)524107549
75GCDW1COLUMBIA-GRAND COULEE DAM10-12-2021INFLOW (KAF)1767517380102
76CHJW1COLUMBIA-CHIEF JOSEPH DAM10-12-2021INFLOW (KAF)201052112995
77WELW1COLUMBIA-WELLS DAM10-12-2021INFLOW (KAF)204102148095
78CHDW1CHELAN-LAKE CHELAN DAM10-12-2021INFLOW (KAF)270158171
79RRHW1COLUMBIA-ROCKY REACH DAM10-12-2021INFLOW (KAF)208222199495
80WANW1COLUMBIA-WANAPUM DAM10-12-2021INFLOW (KAF)2118219612108
81PRWW1COLUMBIA-PRIEST RAPIDS DAM10-12-2021INFLOW (KAF)2118019935106
82KEDW1YAKIMA-KEECHELUS LAKE10-12-2021INFLOW (KAF)5050100
83KADW1KACHESS-KACHESS DAM10-12-2021INFLOW (KAF)4744107
84CLUW1CLE ELUM-CLE ELUM LAKE10-12-2021INFLOW (KAF)121101119
85BUDW1BUMPING-BUMPING LAKE DAM10-12-2021INFLOW (KAF)323591
86RILW1TIETON-RIMROCK LAKE NEAR RIMROCK10-12-2021INFLOW (KAF)416562
87IPDI1HENRYS FORK-ISLAND PARK DAM10-12-2021INFLOW (KAF)8111868
88JLKW4SNAKE-JACKSON LAKE AT DAM10-12-2021INFLOW (KAF)8311274
89PLDI1SF SNAKE-PALISADES DAM10-12-2021INFLOW (KAF)52264781
90RIDI1WILLOW CREEK-RIRIE DAM10-12-2021INFLOW (KAF)8895
91AFRI1SNAKE-AMERICAN FALLS RESERVOIR10-12-2021INFLOW (KAF)1103146975
92MACI1BIG LOST-MACKAY RESERVOIR NEAR MACKAY10-12-2021INFLOW (KAF)246386
93MAGI1BIG WOOD-MAGIC DAM10-12-2021INFLOW (KAF)82731
94LWRI1LITTLE WOOD-LITTLE WOOD DAM10-12-2021INFLOW (KAF)101565
95OWYO3OWYHEE-OWYHEE DAM10-12-2021INFLOW (KAF)497665
96ARAI1SF BOISE-ANDERSON RANCH DAM10-12-2021INFLOW (KAF)627483
97LUCI1BOISE-LUCKY PEAK DAM10-12-2021INFLOW (KAF)31MM
98WRMO3MALHEUR-WARM SPRINGS DAM10-12-2021INFLOW (KAF)161982
99BERO3MALHEUR-AGENCY VALLEY DAM10-12-2021INFLOW (KAF)91562
100BULO3BULLY CREEK-BULLY CREEK DAM10-12-2021INFLOW (KAF)32134
101CSDI1NF PAYETTE-CASCADE DAM10-12-2021INFLOW (KAF)679372
102DEDI1DEADWOOD-NEAR LOWMAN10-12-2021INFLOW (KAF)131967
103BRNI1SNAKE-BROWNLEE DAM10-12-2021INFLOW (KAF)2659369972
104DWRI1NF CLEARWATER-DWORSHAK DAM10-12-2021INFLOW (KAF)21348644
105LGDW1SNAKE-LOWER GRANITE DAM10-12-2021INFLOW (KAF)4002733855
106LGSW1SNAKE-LITTLE GOOSE DAM10-12-2021INFLOW (KAF)4001739154
107LMNW1SNAKE-LOWER MONUMENTAL DAM10-12-2021INFLOW (KAF)4028745154
108IHDW1SNAKE-ICE HARBOR DAM10-12-2021INFLOW (KAF)4028737555
109MCDW1COLUMBIA-MCNARY DAM10-12-2021INFLOW (KAF)257202924688
110JDAO3COLUMBIA-JOHN DAY DAM10-12-2021INFLOW (KAF)267943010889
111TDAO3COLUMBIA-THE DALLES DAM10-12-2021INFLOW (KAF)274913346782
112BONO3COLUMBIA-BONNEVILLE DAM10-12-2021INFLOW (KAF)281043548179
113HOPI1PEND OREILLE-PEND OREILLE LAKE NR HOPE10-12-2021LAKE ELEVATION (FT)MMM
114BFEI1KOOTENAI-AT BONNERS FERRY10-12-2021STAGE (FT)MMM
115SJMI1ST JOE-AT ST MARIES10-12-2021STAGE (FT)MMM